Вернуться в каталог

COSMOS 1086

АктивенВоенныеLEO
NORAD 11301·PAYLOAD·🇷🇺 Russia

Запущен Mar 15, 1979 с Plesetsk Cosmodrome

Loading…

Ближайшие Пролёты (ближайшие 24 часа)

TLE

СвежийSource: Space-Track

Эпоха: Sep 14, 2026, 22:19 UTC

1 11301U 79024F   26257.93052146 -.00000006  00000-0  63410-4 0  9995
2 11301  74.0346 309.7898 0010980 222.8401 317.9087 12.47884697163846

Отслеживайте COSMOS 1086 в реальном времени с AllMySat

Download on the App Store